Weather History for Corona, CA

Change the Weather History Date:

Monday, September 30, 2013

  Actual Average (KONT) Record (KONT)
Temperature  
Mean Temperature 64 °F 72 °F  
Max Temperature 86 °F 85 °F 106 °F (2001)
Min Temperature 41 °F 60 °F 53 °F (2007)
Degree Days  
Heating Degree Days 2 0  
Month to date heating degree days 0  
Since 1 July heating degree days 3  
Cooling Degree Days 0 7  
Month to date cooling degree days 328  
Year to date cooling degree days 1551  
Growing Degree Days 14 (Base 50)    
Moisture  
Dew Point 42 °F    
Average Humidity 50    
Maximum Humidity 82    
Minimum Humidity 16    
Precipitation  
Precipitation 0.00 in 0.02 in 0.62 in (1983)
Month to date precipitation 0.27  
Year to date precipitation 10.87  
Since 1 July precipitation 0.49  
Snow  
Snow 0.00 in - - ()
Month to date snowfall  
Year to date snowfall  
Since 1 July snowfall  
Snow Depth -    
Sea Level Pressure  
Sea Level Pressure 29.92 in    
Wind  
Wind Speed 3 mph (WNW)    
Max Wind Speed 16 mph    
Max Gust Speed -    
Visibility 10 miles    
Events      
T = Trace of Precipitation, MM = Missing Value Source: NWS Daily Summary

Daily Weather History Graph

Daily Weather History Graph

Search for Another Location

Airport:

Trip Planner

Search our weather history database for the weather conditions in past years. The results will help you decide how hot, cold, wet, or windy it might be!

Date:

Astronomy

Sep. 30, 2013 Rise Set
Actual Time 6:44 AM PDT 6:35 PM PDT
Civil Twilight 6:19 AM PDT 7:00 PM PDT
Nautical Twilight 5:50 AM PDT 7:29 PM PDT
Astronomical Twilight 5:21 AM PDT 7:58 PM PDT
Moon 2:36 AM PDT (9/30) 4:00 PM PDT (9/30)
Length of Visible Light 12h 41m
Length of Day
11h 51m
Waning Crescent, 18% of the Moon is Illuminated
Sep 30
Waning Crescent
Oct 4
New
Oct 11
First Quarter
Oct 18
Full
Oct 26
Last Quarter

Hourly Weather History & Observations

Time (PDT) Temp. Dew Point Humidity Pressure Visibility Wind Dir Wind Speed Gust Speed Precip Events Conditions
12:56 AM 50.0 °F 39.9 °F 68% 29.99 in 10.0 mi Calm Calm - N/A   Clear
1:56 AM 48.9 °F 39.9 °F 71% 29.98 in 10.0 mi Calm Calm - N/A   Clear
2:56 AM 45.9 °F 37.9 °F 74% 29.96 in 10.0 mi Calm Calm - N/A   Clear
3:56 AM 43.0 °F 34.0 °F 71% 29.96 in 10.0 mi Calm Calm - N/A   Clear
4:56 AM 41.0 °F 34.0 °F 76% 29.96 in 10.0 mi Calm Calm - N/A   Clear
5:56 AM 43.0 °F 37.9 °F 82% 29.97 in 10.0 mi Calm Calm - N/A   Clear
6:56 AM 41.9 °F 36.9 °F 82% 29.97 in 10.0 mi Calm Calm - N/A   Clear
7:56 AM 50.9 °F 41.9 °F 71% 29.98 in 10.0 mi Calm Calm - N/A   Clear
8:56 AM 64.9 °F 41.0 °F 42% 29.98 in 10.0 mi West 3.5 mph - N/A   Clear
9:56 AM 72.0 °F 41.0 °F 33% 29.97 in 10.0 mi Variable 4.6 mph - N/A   Clear
10:56 AM 77.0 °F 37.9 °F 24% 29.95 in 10.0 mi Variable 3.5 mph - N/A   Clear
11:56 AM 82.9 °F 32.9 °F 16% 29.92 in 10.0 mi Variable 5.8 mph - N/A   Clear
12:56 PM 86.0 °F 38.8 °F 19% 29.90 in 10.0 mi WNW 10.4 mph - N/A   Clear
1:56 PM 86.0 °F 45.0 °F 24% 29.87 in 10.0 mi WNW 12.7 mph - N/A   Clear
2:56 PM 83.8 °F 50.9 °F 32% 29.86 in 10.0 mi WNW 16.1 mph - N/A   Clear
3:56 PM 83.8 °F 47.8 °F 28% 29.85 in 10.0 mi West 15.0 mph - N/A   Clear
4:56 PM 82.9 °F 45.0 °F 26% 29.85 in 10.0 mi WNW 10.4 mph - N/A   Clear
5:56 PM 79.9 °F 46.9 °F 31% 29.84 in 10.0 mi West 8.1 mph - N/A   Clear
6:56 PM 73.9 °F 45.0 °F 35% 29.85 in 10.0 mi NW 6.9 mph - N/A   Clear
7:56 PM 68.0 °F 45.9 °F 45% 29.86 in 10.0 mi NNE 3.5 mph - N/A   Clear
8:56 PM 63.0 °F 45.9 °F 54% 29.88 in 10.0 mi Calm Calm - N/A   Clear
9:56 PM 59.0 °F 45.0 °F 60% 29.89 in 10.0 mi Calm Calm - N/A   Clear
10:56 PM 54.9 °F 45.9 °F 72% 29.88 in 10.0 mi Calm Calm - N/A   Clear
11:56 PM 52.0 °F 41.9 °F 69% 29.88 in 10.0 mi Calm Calm - N/A   Clear